Location: Gwatt
(46.7204°N, 7.6223°E)
Time: 15:52:05
(UTC+00:00)

Cosmos 2285 Rocket - Pass Details

Date: 18 September 2020
Orbit: 970 x 1000 km, 74.0° (Epoch: 29 October)

Event Time Altitude Azimuth Distance (km) Brightness Sun altitude
Rises 19:31:50 0° 185° (S) 3,650 6.8 -20.2°
Reaches altitude 10° 19:34:23 10° 181° (S) 2,709 6.1 -20.6°
Maximum altitude 19:40:29 56° 105° (ESE) 1,151 4.0 -21.6°
Drops below altitude 10° 19:46:39 10° 29° (NNE) 2,742 6.3 -22.5°
Sets 19:49:15 0° 26° (NNE) 3,699 7.1 -22.9°
